Regional Weather Roundup
Issued by NWS Boston, MA

Home | Current Version | Previous Version | Text Only | Print | Product List | Glossary On
Versions: 1 2 3 4 5 6 7 8 9 10 11 12 13 14 15 16 17 18 19 20 21 22 23 24 25 26 27
000
ASUS41 KBOX 160710
RWRBOX

REGIONAL WEATHER ROUNDUP
NATIONAL WEATHER SERVICE TAUNTON MA
300 AM EDT WED APR 16 2014

NOTE:  "FAIR" INDICATES FEW OR NO CLOUDS BELOW 12,000 FEET WITH NO
SIGNIFICANT WEATHER AND/OR OBSTRUCTIONS TO VISIBILITY.  THE FOLLOWING
OBSERVATION LOCATIONS DO NOT REPORT PRESENT WEATHER...PROVINCETOWN...
SMITHFIELD...BLOCK ISLAND...KEENE...AND OXFORD.

MAZALL-160800-
EASTERN MASSACHUSETTS

CITY           SKY/WX    TMP DP  RH WIND       PRES   REMARKS
BOSTON         LGT RAIN  39  33  79 NW15G26   29.81R WCI  31
BEVERLY        LGT RAIN  37  34  89 NW13G20   29.78R WCI  29
LAWRENCE       RAIN      35  32  88 W7        29.81R FOG     WCI  29
BEDFORD        LGT RAIN  35  35 100 W12       29.83R WCI  27
BLUE HILL        N/A     35  34  96 NW14G21   29.78R WCI  26
NORWOOD        LGT RAIN  37  35  92 NW10      29.82R WCI  30
MARSHFIELD       N/A    N/A N/A N/A MISG        N/A
PLYMOUTH       RAIN      39  36  89 NW12      29.78R WCI  32
TAUNTON        LGT RAIN  40  35  83 NW13G20   29.81R
NEW BEDFORD    RAIN      39  37  92 NW9       29.79R
$$

MAZALL-160800-
CAPE COD AND THE ISLANDS

CITY           SKY/WX    TMP DP  RH WIND       PRES   REMARKS
FALMOUTH       LGT RAIN  41  39  93 NW9       29.77S
HYANNIS        LGT RAIN  41  39  93 N18G25    29.75R FOG
CHATHAM        RAIN      41  39  93 NW15G23   29.77R FOG
PROVINCETOWN   CLOUDY    39  37  93 MISG      29.79R
NANTUCKET      LGT RAIN  44  42  93 N18G28    29.75F FOG
MARTHAS VNYRD  LGT RAIN  42  38  85 NW14G25   29.80R
$$

MAZALL-160800-
CENTRAL AND WESTERN MASSACHUSETTS

CITY           SKY/WX    TMP DP  RH WIND       PRES   REMARKS
WORCESTER      MIX PCPN  29  27  92 NW16G28   29.81R FOG     WCI  17
FITCHBURG      LGT SNOW  34  30  85 NW14      29.84R FOG     WCI  25
ORANGE         FLURRIES  30  26  85 W14       29.86R WCI  19
SPRINGFIELD    CLOUDY    32  32 100 NW8       29.88R WCI  25
WESTFIELD      CLOUDY    32  23  69 NW14      29.89F WCI  22
NORTH ADAMS    CLOUDY    28  20  71 W15G24    29.92R WCI  16
PITTSFIELD     CLOUDY    25  19  78 NW22G31   29.89R WCI  10
$$

RIZALL-160800-
RHODE ISLAND

CITY           SKY/WX    TMP DP  RH WIND       PRES   REMARKS
PROVIDENCE     LGT RAIN  37  33  85 NW10      29.87R WCI  30
NEWPORT        RAIN      38  34  85 NW16G24   29.83R WCI  29
BLOCK ISLAND   CLOUDY    36  30  80 NW18G24   29.85R WCI  25
SMITHFIELD     CLOUDY    34  28  80 W12G17    29.84R WCI  25
WESTERLY       LGT RAIN  34  34 100 NW10G18   29.87R FOG     WCI  26
$$

CTZALL-160800-
CONNECTICUT

CITY           SKY/WX    TMP DP  RH WIND       PRES   REMARKS
BRADLEY INTL   CLOUDY    32  24  72 N16G25    29.89F WCI  21
HARTFORD       LGT SNOW  31  27  85 N9        29.95R FOG     WCI  23
BRIDGEPORT     CLOUDY    34  29  82 NW10G17   29.98R WCI  26
DANBURY        CLOUDY    31  26  82 NW12G22   29.96R WCI  22
GROTON         LGT RAIN  33  32  96 NW18G26   29.90R WCI  22
NEW HAVEN      CLOUDY    34  27  75 NW10G22   29.94R WCI  26
CHESTER        HVY RAIN  32  30  93 NW8G23    29.93R WCI  25
MERIDEN        LGT SNOW  32  26  78 N13G18    29.94R WCI  22
WILLIMANTIC    MIX PCPN  32  27  81 N14G20    29.88R WCI  22
OXFORD         CLOUDY    30  19  64 NW16G29   29.94R WCI  19
$$

MEZ002-015-021-024-NHZ003-005-008-011-012-014-VTZ005-008-160800-
NORTHERN NEW ENGLAND

CITY           SKY/WX    TMP DP  RH WIND       PRES   REMARKS
PORTLAND ME    LGT RAIN  36  34  92 NW13      29.74F FOG     WCI  27
BANGOR ME      LGT RAIN  37  34  89 NW9       29.71R FOG     WCI  30
CONCORD NH     LGT SNOW  32  30  92 NW15G24   29.83R VSB 3/4 WCI  22
MANCHESTER NH  LGTSLEET  35  31  85 NW14G21   29.79R FOG     WCI  26
NASHUA NH      LGT RAIN  35  32  89 NW18G26   29.82R WCI  24
PORTSMOUTH NH  FLURRIES  37  35  96 NW18G26   29.76R WCI  26
JAFFREY NH     LGT SNOW  30  27  88 N8        29.79F FOG     WCI  22
KEENE NH       CLOUDY    34  25  69 NW6G17    29.84F WCI  29
BURLINGTON VT  CLOUDY    25  16  68 NW16      30.03R WCI  12
MT. WASHINGTON SNOW       5   5 100 NW64G77     N/A  VSB 1/16WCI -27
$$

NYZ052-076-160800-
EASTERN NEW YORK

CITY           SKY/WX    TMP DP  RH WIND       PRES   REMARKS
ALBANY         FLURRIES  29  20  69 NW20G26   30.02R WCI  16
NEW YORK CITY  CLOUDY    36  26  67 NW20      29.95R WCI  25
$$

ANZALL-160800-
MARINE OBSERVATIONS

STATION/POSITION TIME  TEMP    WIND        PRES    VSBY  WAVE
                       AIR SEA DIR/SP/G                  HT/PER
                 (UTC) (F)     (DEG/KT/KT) (MB)    (MI)  (FT/S)
BOSTON BUOY      0650   39 41  310/ 19/ 23 1008.3R         3/ 4
BUZZARDS BAY     0600          330/ 21/ 23 1008.8R
NANTUCKET SOUND  0650   45 46  340/ 16/ 17 1007.7R         3/ 4
MASS BAY-STELLWA 0604   39 40  300/ 19/ 23 1006.6R  1 1/8
ISLE OF SHOALS   0600   38     310/ 22/ 24 1006.5R
S OF BLOCK IS    0625      44                N/A          11/11
$$

......................KEY.........................
  SKY/WX - SKY CONDITION/PRESENT WEATHER
  TMP    - TEMPERATURE IN FAHRENHEIT
  DWPT   - DEWPOINT IN FAHRENHEIT
  RH     - RELATIVE HUMIDITY IN PERCENT
  WIND   - DIRECTION AND SPEED IN MPH
  PRES   - MEAN SEA LEVEL PRESSURE IN INCHES OF HG
  WCI    - WIND CHILL INDEX
  VSB    - VISIBILITY IN MILES
  HX     - HEAT INDEX
  TC     - TEMPERATURE IN CELSIUS
  VRB    - VARIABLE WIND DIRECTION
  N/A    - NOT AVAILABLE



USA.gov is the U.S. government's official web portal to all federal, state and local government web resources and services.